Flag Weather past 2 weeks in Coquitlam, British Columbia, Canada

Now
37 °F

Chilly.


Feels Like: 37 °F
Forecast: 39 / 44 °F
Wind: 2 mph from North

Location: P. Meadows Coastal Station

Current Time: Nov 23, 2014 at 9:39:47 PM

Latest Report: Nov 23, 2014 at 9:00 PM


Visibility: N/A

Pressure: 30.25 "Hg

Humidity: 98%

Dew point: 37 °F

Location of CoquitlamLocation

Historic Weather in Coquitlam — Graph

°F

Coquitlam temperature yesterday

Maximum temperature yesterday: 52 °F (at 3:00 PM)
Minimum temperature yesterday: 38 °F (at 10:00 PM)
Average temperature yesterday: 45 °F

Past Weeks' High & Low Weather Summary

 TemperatureHumidityPressure
High53 °F (Nov 10, 3:00 PM)100% (Nov 9, 5:00 AM)30.57 "Hg (Nov 9, 5:00 AM)
Low21 °F (Nov 14, 4:00 AM)20% (Nov 12, 3:00 PM)29.27 "Hg (Nov 21, 7:00 PM)
Average39 °F78%30.11 "Hg
* Reported Nov 8 8:00 PM — Nov 23 8:00 PM, Coquitlam, Weather by CustomWeather, © 2014

Note: Actual official high and low records may vary slightly from our data, if they occured in-between our weather recording intervals... More about our weather records

Advertising

Coquitlam weather history for previous 24 hours

 ConditionsComfort  
Time TempWeatherWind HumidityBarometerVisibility
8:00 PM
Nov 23
37 °FChilly.No wind96%30.23 "HgN/A
7:00 PM40 °FChilly.2 mph92%30.21 "HgN/A
6:00 PM42 °FQuite cool.1 mph88%30.18 "HgN/A
5:00 PM46 °FCool.1 mph79%30.15 "HgN/A
4:00 PM49 °FCool.3 mph70%30.12 "HgN/A
3:00 PM52 °FCool.3 mph60%30.11 "HgN/A
2:00 PM52 °FCool.7 mph68%30.09 "HgN/A
1:00 PM51 °FCool.6 mph73%30.07 "HgN/A
12:00 PM50 °FCool.5 mph81%30.05 "HgN/A
11:00 AM48 °FCool.5 mph90%30.03 "HgN/A
10:00 AM48 °FCool.2 mph89%29.98 "HgN/A
9:00 AM47 °FCool.6 mph90%29.97 "HgN/A
8:00 AM47 °FCool.8 mph83%29.94 "HgN/A
7:00 AM46 °FCool.9 mph90%29.93 "HgN/A
6:00 AM44 °FQuite cool.7 mph97%29.97 "HgN/A
5:00 AM45 °FCool.8 mph93%29.96 "HgN/A
4:00 AM46 °FCool.12 mph92%30.00 "HgN/A
3:00 AM45 °FQuite cool.3 mph99%30.05 "HgN/A
2:00 AM41 °FQuite cool.1 mph92%30.06 "HgN/A
1:00 AM39 °FChilly.1 mph98%30.07 "HgN/A
12:00 AM39 °FChilly.No wind99%30.07 "HgN/A
11:00 PM
Nov 22
39 °FChilly.No wind98%30.06 "HgN/A
10:00 PM38 °FChilly.No wind97%30.05 "HgN/A
9:00 PM39 °FChilly.2 mph96%30.02 "HgN/A
Weather by CustomWeather, © 2014

See weather overviewHow to use our weather pages